Lumberton, NC

10:23 AM EDT on March 29, 2017 (GMT -0400)
Lumberton Municipal

Weather History for KLBT - September, 2014

Change the Weather History Date:

Wednesday, September 17, 2014

  Actual Average Record
Temperature  
Mean Temperature 74 °F 73 °F  
Max Temperature 82 °F 84 °F 96 °F (2005)
Min Temperature 65 °F 62 °F 46 °F (2000)
Degree Days  
Heating Degree Days 0 0  
Month to date heating degree days 0 0  
Since 1 July heating degree days 0 0  
Cooling Degree Days 9 8  
Month to date cooling degree days 231 167  
Year to date cooling degree days 1888 1739  
Growing Degree Days 23 (Base 50)    
Moisture  
Dew Point 67 °F    
Average Humidity 79    
Maximum Humidity 100    
Minimum Humidity 58    
Precipitation  
Precipitation 0.39 in 0.15 in 0.51 in (2004)
Month to date precipitation 3.17 2.80  
Year to date precipitation 35.33 33.19  
Sea Level Pressure  
Sea Level Pressure 29.93 in    
Wind  
Wind Speed 4 mph (NE)    
Max Wind Speed 12 mph    
Max Gust Speed 15 mph    
Visibility 9 miles    
Events Rain , Thunderstorm    
T = Trace of Precipitation, MM = Missing Value Source: NWS Daily Summary

Daily Weather History Graph

Daily Weather History Graph

Search for Another Location

Airport or City:

Trip Planner

Search our weather history database for the weather conditions in past years. The results will help you decide how hot, cold, wet, or windy it might be!

Date:

Astronomy

Sep. 17, 2014 Rise Set
Actual Time 7:00 AM EDT 7:20 PM EDT
Civil Twilight 6:35 AM EDT 7:45 PM EDT
Nautical Twilight 6:05 AM EDT 8:14 PM EDT
Astronomical Twilight 5:35 AM EDT 8:44 PM EDT
Moon 1:09 AM EDT (9/17) 3:18 PM EDT (9/17)
Length of Visible Light 13h 09m
Length of Day
12h 19m
Waning Crescent, 35% of the Moon is Illuminated
Sep 17
Waning Crescent
Sep 24
New
Oct 1
First Quarter
Oct 8
Full
Oct 15
Last Quarter

Hourly Weather History & Observations

Time (EDT) Temp. Heat Index Dew Point Humidity Pressure Visibility Wind Dir Wind Speed Gust Speed Precip Events Conditions
12:54 AM 66.0 °F - 64.0 °F 93% 29.99 in 2.5 mi West 8.1 mph - 0.13 in Rain , Thunderstorm Thunderstorms and Rain
1:01 AM 66.0 °F - 64.0 °F 93% 29.98 in 3.0 mi SSW 8.1 mph - 0.03 in Rain , Thunderstorm Thunderstorms and Rain
1:11 AM 66.0 °F - 64.0 °F 93% 29.98 in 3.0 mi SW 5.8 mph - 0.07 in Rain Rain
1:20 AM 66.0 °F - 64.0 °F 93% 29.98 in 4.0 mi South 8.1 mph - 0.09 in Rain , Thunderstorm Thunderstorms and Rain
1:40 AM 64.9 °F - 64.0 °F 97% 29.99 in 5.0 mi SW 5.8 mph - 0.12 in Rain , Thunderstorm Light Rain
1:54 AM 66.0 °F - 64.9 °F 96% 29.98 in 5.0 mi South 6.9 mph - 0.15 in Rain , Thunderstorm Thunderstorms and Rain
2:13 AM 66.0 °F - 64.9 °F 96% 29.98 in 10.0 mi South 6.9 mph - 0.01 in Rain , Thunderstorm Light Rain
2:54 AM 66.0 °F - 64.9 °F 96% 29.96 in 10.0 mi Calm Calm - 0.03 in Rain Light Rain
3:54 AM 66.0 °F - 64.9 °F 96% 29.94 in 10.0 mi NW 9.2 mph - 0.06 in   Mostly Cloudy
4:54 AM 66.0 °F - 64.9 °F 96% 29.90 in 6.0 mi NNW 5.8 mph - 0.05 in Rain Rain
5:54 AM 66.0 °F - 64.0 °F 93% 29.91 in 10.0 mi North 5.8 mph - 0.01 in   Clear
6:54 AM 64.9 °F - 64.0 °F 97% 29.92 in 10.0 mi NNE 4.6 mph - N/A   Clear
7:19 AM 64.9 °F - 64.0 °F 97% 29.93 in 10.0 mi North 4.6 mph - N/A   Partly Cloudy
7:54 AM 66.0 °F - 64.0 °F 93% 29.95 in 10.0 mi Calm Calm - N/A   Scattered Clouds
8:54 AM 69.1 °F - 64.9 °F 87% 29.95 in 10.0 mi North 6.9 mph - N/A   Clear
9:19 AM 71.1 °F - 66.0 °F 84% 29.95 in 10.0 mi NNE 8.1 mph - N/A   Partly Cloudy
9:54 AM 72.0 °F - 66.9 °F 84% 29.95 in 10.0 mi ENE 5.8 mph - N/A   Mostly Cloudy
10:09 AM 72.0 °F - 66.9 °F 84% 29.95 in 10.0 mi ENE 5.8 mph - N/A   Mostly Cloudy
10:54 AM 75.9 °F - 68.0 °F 76% 29.95 in 10.0 mi NE 5.8 mph - N/A   Mostly Cloudy
11:03 AM 75.0 °F - 68.0 °F 79% 29.95 in 10.0 mi NNE 5.8 mph - N/A   Mostly Cloudy
11:54 AM 75.0 °F - 68.0 °F 79% 29.95 in 9.0 mi ENE 5.8 mph - N/A   Overcast
12:54 PM 75.0 °F - 68.0 °F 79% 29.94 in 10.0 mi NE 8.1 mph - N/A   Overcast
2:54 PM 79.0 °F - 69.1 °F 72% 29.90 in 10.0 mi Variable 4.6 mph - N/A   Mostly Cloudy
3:07 PM 79.0 °F - 68.0 °F 69% 29.90 in 10.0 mi Calm Calm - N/A   Overcast
3:14 PM 80.1 °F 82.7 °F 68.0 °F 67% 29.90 in 10.0 mi Calm Calm - N/A   Mostly Cloudy
3:23 PM 79.0 °F - 66.9 °F 66% 29.89 in 10.0 mi ENE 4.6 mph - N/A   Mostly Cloudy
3:54 PM 80.1 °F 82.3 °F 66.9 °F 64% 29.89 in 10.0 mi Calm Calm - N/A   Mostly Cloudy
4:54 PM 82.0 °F 84.5 °F 66.9 °F 60% 29.88 in 10.0 mi Calm Calm - N/A   Clear
5:54 PM 81.0 °F 83.8 °F 68.0 °F 65% 29.87 in 10.0 mi Calm Calm - N/A   Clear
6:54 PM 78.1 °F - 70.0 °F 76% 29.89 in 10.0 mi Calm Calm - N/A   Clear
7:54 PM 73.9 °F - 71.1 °F 91% 29.89 in 10.0 mi Calm Calm - N/A   Mostly Cloudy
8:54 PM 75.0 °F - 69.1 °F 82% 29.90 in 10.0 mi ENE 5.8 mph - N/A   Overcast
9:39 PM 73.9 °F - 69.1 °F 85% 29.91 in 10.0 mi NE 5.8 mph - N/A Thunderstorm Thunderstorm
9:54 PM 73.0 °F - 69.1 °F 87% 29.92 in 7.0 mi NE 3.5 mph - 0.01 in Rain Rain
10:21 PM 72.0 °F - 69.1 °F 91% 29.92 in 2.0 mi NE 4.6 mph - 0.10 in Rain Heavy Rain
10:30 PM 72.0 °F - 69.1 °F 91% 29.93 in 8.0 mi East 9.2 mph - 0.10 in Rain Light Rain
10:43 PM 72.0 °F - 68.0 °F 87% 29.92 in 10.0 mi East 9.2 mph - 0.10 in   Mostly Cloudy
10:54 PM 71.1 °F - 68.0 °F 90% 29.92 in 10.0 mi East 8.1 mph - 0.10 in   Scattered Clouds
11:54 PM 70.0 °F - 66.9 °F 90% 29.93 in 10.0 mi ENE 5.8 mph - N/A   Mostly Cloudy